Wind_Speed
9 8 8 7 7 7 4 4 4 3 2 2 1 1 2 2 4 5 6 6 7 7 7 7 7 7 7 7 8 8 9 10 10 10 10 9 9 9 9 8 8 8 7 7 7 6 6 6 5
9 8 7 7 7 5 4 4 4 3 3 2 2 1 1 2 3 5 6 7 7 8 8 8 8 8 8 7 8 8 9 9 9 9 9 9 8 8 8 7 7 7 6 6 6 6 6 5 5
9 8 7 6 6 3 2 4 4 4 3 3 3 2 1 2 3 4 6 6 7 8 8 9 9 9 9 8 8 9 9 9 9 9 8 8 7 7 6 6 6 6 5 5 5 5 5 5 4
8 8 7 6 4 3 3 4 4 3 3 3 3 3 2 2 3 3 5 6 7 8 9 10 10 10 10 9 9 9 9 9 8 8 8 7 7 6 6 5 5 5 5 4 4 4 4 4 3
8 7 7 6 5 5 5 5 5 5 4 4 4 3 3 3 4 4 5 6 8 9 10 11 11 11 11 11 10 10 10 9 8 8 7 6 6 5 5 5 4 4 4 3 3 3 3 3 2
8 8 6 5 6 5 5 5 6 6 6 5 4 4 4 4 4 4 5 6 8 10 10 11 13 13 13 12 12 11 10 9 8 8 7 5 5 4 4 4 3 2 2 2 2 2 2 2 2
8 7 6 6 7 6 5 5 6 5 6 6 5 5 5 5 5 5 5 5 8 10 11 12 13 14 14 14 13 12 11 10 9 8 7 5 4 4 3 2 2 2 1 1 1 1 2 2 2
8 7 7 6 6 6 6 6 6 6 6 6 6 6 6 6 6 6 6 6 8 10 12 13 14 15 15 15 15 14 13 12 10 9 7 6 4 3 3 2 1 0 0 0 1 1 2 2 2
8 7 6 6 6 6 6 6 7 7 7 7 7 7 7 7 8 8 8 8 9 11 13 14 15 16 16 17 16 15 14 13 12 10 8 7 5 4 3 2 1 0 0 1 1 1 2 2 2
9 7 7 7 6 7 7 7 8 8 9 9 9 9 9 9 10 10 10 9 10 12 13 15 17 17 18 18 18 17 15 14 13 11 9 8 6 5 4 3 2 1 1 1 1 1 1 1 2
10 9 9 8 8 8 8 8 8 9 10 10 11 11 10 11 11 11 11 10 11 12 14 16 18 18 19 20 20 19 17 16 15 13 11 9 8 6 6 4 3 2 1 1 1 1 1 1 1
11 10 9 9 9 9 9 9 9 10 10 11 11 12 12 13 13 12 12 12 12 13 14 15 18 20 20 20 21 20 19 17 15 14 12 11 9 8 7 6 4 3 1 1 1 1 1 0 1
12 11 10 10 10 10 10 9 9 10 11 11 12 12 12 13 14 14 14 13 14 14 15 16 18 20 21 21 22 21 20 19 17 15 14 12 10 9 8 6 5 4 3 2 1 1 1 1 1
12 12 11 11 11 11 10 10 10 10 11 12 12 13 13 14 14 14 14 13 14 15 17 18 20 22 23 23 23 22 21 20 18 16 14 12 11 9 8 7 5 5 4 3 2 1 1 1 1
13 12 12 12 11 11 10 10 11 12 12 13 13 13 14 15 14 14 13 13 13 14 16 19 21 23 24 24 24 22 22 21 19 17 15 13 11 10 9 8 6 5 4 4 3 2 2 2 2
13 13 12 14 12 11 10 9 13 12 13 13 13 14 15 15 14 14 14 13 13 14 15 18 20 23 25 25 26 24 22 21 20 18 16 14 12 11 10 9 7 6 5 5 3 2 2 2 2
13 13 13 14 13 11 10 10 13 13 14 14 14 14 14 14 14 14 15 13 12 14 15 16 18 21 23 25 26 25 23 22 21 19 17 15 13 11 10 10 8 7 6 5 4 3 2 2 2
14 14 14 14 14 12 11 11 13 14 15 15 14 14 14 14 14 15 15 13 12 12 14 15 16 19 23 24 26 25 24 23 21 20 17 15 14 12 11 10 9 8 7 6 5 3 2 2 2
16 14 14 15 14 12 11 11 14 15 16 15 15 14 14 14 15 15 15 13 12 12 13 14 16 18 21 23 24 24 23 22 21 20 18 16 14 13 12 11 10 9 8 6 5 4 3 2 2
15 14 14 15 14 12 11 11 14 16 17 16 15 15 15 15 14 14 14 13 11 10 11 12 15 18 20 22 23 22 23 24 22 20 18 17 16 14 13 12 11 10 8 7 6 5 4 3 3
15 14 15 15 13 12 12 11 14 16 16 16 16 15 14 13 12 12 12 11 10 10 11 11 12 16 20 21 22 23 22 23 22 19 18 17 16 15 14 13 12 11 9 8 7 6 5 5 4
15 15 15 14 12 12 12 11 13 15 16 15 15 14 12 11 11 12 11 11 11 10 10 10 11 14 18 20 21 22 23 22 22 21 20 18 17 16 15 14 13 12 11 9 8 7 6 5 5
17 17 16 14 13 12 13 11 11 15 15 15 14 13 11 11 11 12 11 11 10 10 9 10 12 13 16 19 20 23 23 22 22 21 20 19 18 18 16 15 14 13 12 10 9 7 6 5 5
17 16 15 14 14 13 13 12 10 13 14 14 13 12 11 11 11 12 11 11 9 8 7 8 11 14 17 19 19 22 22 22 22 21 20 20 20 19 18 17 15 14 13 11 10 9 8 7 6
16 15 15 14 14 13 15 13 11 13 13 13 13 12 11 11 11 11 11 10 9 7 6 6 9 13 17 19 20 21 22 22 22 21 21 21 20 19 18 17 17 15 14 12 11 10 9 8 8
16 16 16 14 14 14 15 13 12 13 12 12 12 11 10 11 10 10 10 9 8 7 5 5 8 11 15 18 20 22 22 22 22 21 20 20 20 20 20 19 17 16 15 13 12 11 11 10 10
17 17 16 16 15 14 13 13 13 12 12 12 11 10 10 10 9 8 8 8 7 7 6 4 7 11 14 15 17 19 21 21 21 20 20 20 20 20 20 20 18 17 16 14 14 14 13 13 13
19 18 18 17 15 14 13 12 12 12 12 11 11 11 10 9 9 7 6 7 7 7 6 5 5 10 14 15 17 18 20 21 21 20 21 20 20 20 19 20 19 18 17 16 16 16 16 16 15
20 20 19 17 17 15 13 12 14 12 12 11 10 10 9 9 7 6 6 6 7 6 5 4 5 8 11 14 17 18 18 18 18 18 19 19 20 19 19 19 19 19 18 18 18 18 19 19 19
20 20 20 20 19 17 15 14 16 13 12 11 10 10 8 8 7 6 6 6 7 6 4 4 4 7 9 12 15 16 16 17 17 17 18 19 19 20 20 20 20 20 20 21 21 21 22 22 22
Wind_Direction
28 33 36 45 51 48 39 21 8 5 16 29 21 173 179 191 196 199 194 189 191 191 186 181 180 182 180 181 173 161 149 139 131 124 117 110 105 100 96 94 93 93 94 96 98 101 102 101 103
18 24 30 38 49 39 14 9 4 3 6 6 355 326 220 209 205 202 203 198 199 201 199 194 192 192 188 189 181 169 158 146 137 128 122 115 109 102 97 94 94 94 95 98 102 104 106 106 108
12 18 20 29 50 48 3 359 355 354 357 350 339 318 299 252 231 226 223 214 208 209 207 203 197 196 196 194 187 176 166 154 143 134 127 119 111 104 99 96 96 96 96 99 104 107 110 111 113
5 10 17 23 25 10 346 342 340 345 349 344 337 321 313 282 268 257 235 227 218 215 212 207 201 201 202 198 191 184 173 162 153 144 134 124 113 104 99 95 94 94 94 99 107 112 113 115 119
360 2 10 12 4 357 351 344 342 342 344 349 342 332 315 295 286 275 253 238 229 222 217 212 209 207 205 204 198 191 182 174 165 156 145 133 119 108 101 96 94 91 91 98 107 116 121 122 131
353 358 6 351 350 351 347 343 342 340 342 343 336 328 323 314 297 285 269 253 239 228 222 216 214 212 209 207 204 198 191 184 178 170 159 148 135 125 113 106 97 88 83 100 120 139 145 144 152
345 349 351 344 341 344 343 342 343 344 342 338 333 323 315 315 310 296 282 261 241 232 227 223 221 218 215 212 209 204 197 192 187 181 175 168 157 146 138 125 97 78 75 99 129 169 173 173 181
334 338 343 341 335 329 333 335 334 328 334 333 329 327 317 312 309 302 289 273 249 237 232 228 225 221 219 217 212 207 203 199 196 192 187 184 181 172 166 161 152 112 56 124 145 182 185 186 189
322 326 327 324 321 316 323 326 326 324 327 327 322 322 318 311 308 301 289 275 258 245 235 231 225 223 221 218 215 211 208 205 204 202 198 201 200 196 194 194 196 213 212 170 170 182 175 178 177
312 316 308 311 312 312 314 316 318 315 318 319 318 315 315 310 305 300 290 276 260 248 240 232 224 222 222 220 216 213 212 211 212 211 209 209 208 213 215 214 213 194 155 153 141 161 164 172 171
304 303 304 306 305 306 306 308 310 311 310 308 311 313 314 311 305 298 289 278 262 256 246 236 226 223 223 221 217 215 215 215 217 218 217 217 218 223 226 221 208 197 181 148 146 158 154 160 183
297 298 300 300 298 298 298 300 302 305 305 305 305 309 315 314 309 299 289 282 266 258 247 237 231 225 224 222 217 217 217 217 219 220 221 221 222 225 223 218 211 207 190 172 158 135 142 183 243
291 292 292 291 292 294 296 296 297 298 301 305 306 307 311 314 312 306 295 285 271 257 245 237 232 228 223 220 217 219 219 219 220 222 225 222 223 221 218 216 216 210 198 191 180 156 156 236 254
284 285 284 285 286 290 294 294 294 297 299 303 305 306 312 317 314 308 299 286 271 255 244 237 234 230 222 219 219 219 220 219 218 221 224 224 223 221 220 217 213 207 202 200 193 186 238 280 274
278 279 280 280 284 288 292 294 294 297 299 301 304 306 310 315 314 312 305 292 275 256 246 241 235 226 218 217 219 221 220 220 220 218 221 221 222 221 221 219 213 206 203 202 201 207 245 270 273
272 272 272 276 281 285 288 286 288 297 300 300 303 306 308 312 312 312 309 295 275 256 249 246 237 227 221 218 218 220 219 218 217 217 219 219 219 218 217 213 212 207 206 205 205 214 235 260 279
265 263 261 271 278 282 285 279 285 293 299 299 302 306 309 312 313 313 311 300 280 261 252 247 239 228 224 221 219 217 216 215 215 216 216 217 217 213 213 212 208 206 205 207 207 210 224 245 263
255 256 259 264 273 278 284 283 286 291 296 298 299 303 306 309 311 311 309 302 284 266 255 246 238 226 222 218 216 215 215 214 214 215 213 212 211 208 210 209 207 209 209 209 205 205 209 218 226
251 253 257 262 269 275 280 283 286 291 296 296 296 299 301 304 308 308 308 305 289 271 262 253 237 228 221 217 214 216 212 212 212 212 211 210 208 207 209 205 205 205 205 205 202 202 204 207 220
252 253 255 261 267 273 278 284 288 292 296 296 297 300 302 305 306 307 309 311 300 278 265 254 234 225 221 217 215 214 210 211 209 209 210 210 207 207 208 206 204 203 203 205 204 202 201 205 219
251 251 251 256 268 275 282 291 291 291 294 296 297 299 300 307 310 311 312 311 306 292 275 251 231 224 220 215 211 210 208 209 208 207 208 209 207 209 207 206 204 203 202 207 210 208 208 212 225
246 248 251 257 263 271 282 286 286 290 296 299 301 301 300 307 314 315 315 313 309 295 276 255 233 222 215 212 208 210 208 208 208 209 209 210 210 210 207 204 204 204 205 208 208 208 210 219 227
242 246 250 256 264 272 283 286 288 290 296 300 303 302 301 307 316 318 319 316 312 299 274 250 233 219 211 209 210 208 208 209 209 209 211 211 212 211 207 206 206 206 207 207 208 213 217 222 229
245 247 252 260 266 271 274 279 286 288 295 302 303 299 300 306 313 316 321 321 315 306 285 248 232 219 211 210 210 206 208 211 212 212 212 213 214 211 210 208 208 209 209 210 214 220 225 231 238
244 244 250 258 263 268 273 276 278 282 293 301 303 298 297 303 307 312 318 324 319 311 290 255 227 216 212 211 209 207 211 212 213 214 212 213 212 212 211 210 211 212 213 217 221 228 233 239 246
242 238 238 245 255 266 276 275 275 284 293 300 301 298 297 304 304 306 312 320 325 319 297 249 220 212 208 209 210 210 211 213 213 211 213 214 213 214 215 215 213 213 218 225 229 235 241 246 252
240 238 240 247 255 261 269 275 276 281 291 297 298 297 300 304 302 300 306 316 318 323 311 289 229 213 208 207 207 207 209 212 213 212 214 213 214 216 218 217 217 219 226 232 237 243 247 251 257
238 239 242 244 251 260 268 276 275 277 286 295 296 295 299 302 302 298 299 308 312 310 303 293 248 218 213 211 210 209 210 213 214 214 214 215 215 216 218 219 222 226 232 237 242 248 251 256 261
241 241 243 245 247 253 262 266 268 270 278 287 293 296 299 302 303 301 301 306 308 305 295 272 233 214 214 214 213 209 209 212 214 216 215 215 217 218 220 224 229 234 239 244 248 251 255 259 263
240 242 246 248 254 256 256 260 262 263 270 278 284 290 297 300 298 296 297 300 301 295 283 255 221 215 216 217 214 210 210 213 216 217 217 220 222 224 227 229 235 239 244 249 252 255 258 261 264
Height
5901 5900 5900 5901 5901 5902 5901 5900 5898 5897 5896 5895 5894 5893 5893 5893 5893 5895 5893 5891 5892 5893 5893 5894 5895 5896 5896 5897 5898 5898 5898 5898 5899 5899 5900 5900 5900 5901 5901 5901 5901 5901 5901 5901 5901 5901 5901 5901 5901
5901 5900 5901 5901 5902 5902 5901 5899 5898 5897 5896 5894 5893 5893 5892 5891 5891 5891 5890 5890 5891 5892 5892 5893 5894 5895 5896 5897 5898 5898 5898 5899 5899 5899 5900 5900 5901 5901 5901 5901 5901 5901 5901 5901 5901 5901 5902 5902 5902
5901 5900 5901 5901 5901 5902 5901 5899 5898 5896 5895 5894 5893 5892 5891 5891 5890 5889 5889 5889 5890 5890 5891 5892 5893 5895 5896 5896 5897 5898 5898 5899 5899 5900 5900 5901 5901 5901 5901 5901 5901 5902 5901 5901 5901 5901 5902 5902 5902
5900 5901 5901 5901 5901 5900 5899 5898 5897 5896 5894 5893 5892 5891 5890 5889 5889 5888 5888 5888 5888 5889 5890 5891 5892 5894 5895 5896 5897 5897 5898 5898 5899 5900 5900 5901 5901 5901 5901 5901 5901 5902 5901 5901 5901 5901 5901 5901 5901
5900 5900 5901 5900 5900 5899 5898 5897 5896 5895 5894 5893 5891 5890 5889 5888 5887 5887 5886 5886 5887 5887 5888 5889 5891 5892 5893 5894 5896 5896 5897 5898 5899 5899 5900 5901 5901 5901 5901 5901 5901 5901 5901 5901 5901 5901 5901 5901 5901
5900 5900 5901 5900 5899 5898 5897 5896 5895 5894 5893 5892 5891 5889 5888 5887 5886 5886 5885 5885 5885 5886 5886 5887 5889 5890 5892 5893 5894 5895 5896 5897 5898 5899 5900 5900 5901 5901 5901 5901 5901 5901 5900 5901 5900 5900 5900 5900 5901
5899 5899 5899 5899 5898 5897 5897 5895 5894 5893 5892 5891 5890 5888 5887 5885 5885 5884 5884 5883 5883 5884 5885 5886 5887 5889 5890 5891 5893 5894 5895 5896 5897 5898 5899 5900 5900 5900 5900 5900 5900 5900 5900 5900 5900 5900 5900 5900 5900
5897 5898 5897 5897 5897 5896 5895 5894 5893 5892 5891 5890 5888 5887 5886 5884 5883 5882 5882 5882 5882 5882 5883 5884 5885 5887 5888 5889 5891 5892 5894 5895 5896 5897 5898 5899 5899 5899 5899 5900 5900 5899 5899 5899 5899 5899 5899 5899 5899
5895 5897 5896 5896 5895 5895 5894 5893 5892 5890 5889 5888 5887 5885 5884 5882 5881 5880 5880 5879 5879 5879 5880 5881 5883 5884 5886 5887 5889 5890 5892 5893 5895 5896 5897 5898 5898 5899 5899 5899 5899 5899 5899 5898 5898 5898 5898 5898 5898
5894 5895 5894 5894 5893 5893 5892 5891 5890 5889 5887 5886 5885 5883 5882 5880 5879 5878 5877 5877 5876 5876 5877 5878 5879 5881 5883 5885 5886 5888 5890 5891 5893 5894 5895 5896 5897 5897 5898 5898 5898 5898 5898 5898 5897 5897 5897 5897 5898
5892 5892 5891 5891 5891 5890 5889 5889 5888 5887 5886 5884 5883 5881 5879 5878 5876 5875 5874 5874 5873 5873 5873 5874 5876 5878 5880 5882 5884 5886 5888 5889 5891 5892 5894 5895 5895 5896 5896 5897 5897 5897 5897 5897 5897 5897 5897 5897 5897
5890 5889 5889 5888 5888 5888 5887 5887 5886 5885 5884 5882 5881 5879 5877 5875 5874 5872 5871 5870 5870 5870 5870 5871 5872 5875 5877 5879 5881 5883 5885 5887 5888 5890 5892 5893 5894 5894 5895 5895 5896 5896 5896 5896 5896 5896 5896 5896 5896
5887 5887 5886 5886 5886 5885 5885 5885 5884 5883 5882 5880 5879 5877 5875 5873 5871 5869 5868 5866 5866 5866 5866 5867 5868 5871 5873 5876 5878 5880 5882 5884 5886 5888 5889 5891 5891 5892 5893 5894 5895 5895 5895 5895 5895 5896 5896 5896 5896
5884 5884 5884 5883 5883 5883 5883 5882 5882 5881 5880 5878 5876 5874 5872 5870 5868 5866 5864 5863 5861 5861 5861 5862 5864 5866 5869 5872 5874 5876 5879 5881 5883 5885 5887 5888 5890 5891 5892 5893 5894 5894 5895 5895 5895 5895 5895 5895 5895
5881 5881 5881 5881 5881 5880 5881 5881 5879 5878 5877 5875 5874 5872 5870 5867 5865 5863 5861 5859 5857 5856 5857 5858 5859 5862 5865 5868 5871 5873 5875 5878 5880 5882 5884 5886 5888 5889 5891 5891 5892 5893 5894 5894 5894 5895 5895 5895 5895
5878 5879 5879 5879 5878 5878 5880 5880 5877 5876 5874 5873 5871 5869 5867 5865 5862 5860 5858 5855 5853 5853 5853 5854 5855 5857 5860 5863 5866 5869 5872 5875 5877 5879 5882 5884 5886 5887 5889 5890 5891 5892 5893 5893 5894 5894 5894 5894 5894
5875 5876 5877 5876 5875 5875 5876 5877 5874 5873 5872 5870 5868 5866 5864 5862 5859 5857 5854 5852 5850 5850 5849 5850 5851 5853 5856 5859 5862 5865 5868 5871 5874 5877 5879 5881 5883 5885 5887 5889 5890 5891 5892 5893 5893 5893 5893 5894 5893
5872 5873 5873 5874 5872 5873 5873 5873 5872 5870 5869 5867 5865 5863 5861 5859 5857 5854 5852 5849 5848 5847 5846 5846 5847 5849 5852 5855 5859 5862 5865 5868 5871 5874 5877 5879 5881 5883 5885 5887 5888 5890 5891 5892 5892 5892 5893 5893 5893
5867 5869 5870 5870 5869 5870 5870 5870 5869 5867 5866 5864 5862 5861 5859 5856 5854 5852 5849 5847 5845 5844 5843 5843 5844 5846 5849 5851 5855 5859 5862 5865 5868 5871 5874 5876 5879 5881 5884 5885 5887 5888 5890 5891 5891 5892 5892 5892 5892
5863 5865 5866 5866 5866 5867 5867 5867 5866 5864 5863 5861 5859 5857 5855 5853 5851 5849 5846 5844 5842 5840 5840 5840 5841 5842 5845 5848 5851 5855 5858 5862 5865 5868 5871 5874 5877 5879 5882 5884 5885 5887 5888 5889 5890 5891 5891 5891 5892
5859 5861 5862 5862 5863 5864 5865 5865 5864 5861 5859 5858 5856 5854 5852 5850 5848 5846 5844 5842 5839 5838 5837 5836 5837 5839 5841 5844 5848 5852 5856 5860 5863 5866 5869 5872 5875 5877 5879 5882 5884 5885 5887 5888 5889 5890 5890 5891 5891
5855 5857 5858 5859 5861 5863 5862 5863 5862 5858 5856 5855 5852 5851 5849 5847 5846 5844 5842 5840 5837 5836 5834 5833 5834 5836 5838 5841 5845 5849 5854 5857 5861 5864 5867 5870 5873 5875 5878 5880 5882 5884 5885 5887 5888 5889 5889 5890 5890
5852 5852 5854 5855 5857 5859 5859 5859 5860 5855 5853 5852 5849 5848 5846 5845 5843 5841 5839 5837 5835 5833 5832 5831 5832 5833 5836 5839 5842 5847 5851 5855 5858 5861 5864 5867 5870 5873 5875 5878 5880 5882 5883 5885 5886 5887 5888 5888 5889
5847 5849 5851 5852 5855 5856 5856 5856 5857 5853 5851 5849 5847 5845 5844 5842 5841 5839 5837 5835 5833 5831 5829 5828 5829 5831 5834 5837 5840 5844 5848 5852 5855 5859 5862 5865 5868 5870 5873 5875 5878 5880 5881 5883 5885 5886 5886 5887 5888
5844 5847 5850 5851 5853 5854 5852 5852 5852 5849 5847 5846 5844 5842 5841 5840 5838 5836 5835 5833 5831 5829 5827 5827 5827 5829 5832 5835 5838 5842 5845 5849 5852 5855 5859 5862 5865 5868 5871 5873 5875 5877 5879 5881 5882 5884 5884 5885 5886
5840 5843 5847 5849 5851 5851 5849 5848 5849 5846 5844 5843 5841 5839 5838 5837 5836 5834 5833 5831 5830 5828 5827 5826 5826 5827 5830 5832 5835 5839 5843 5846 5849 5853 5856 5859 5862 5865 5868 5870 5873 5875 5877 5878 5880 5881 5882 5883 5883
5835 5838 5842 5844 5845 5846 5846 5845 5844 5842 5841 5840 5838 5837 5836 5835 5833 5832 5831 5830 5829 5828 5826 5825 5825 5826 5828 5830 5833 5836 5840 5844 5847 5850 5853 5856 5859 5862 5865 5867 5870 5872 5874 5876 5877 5878 5879 5880 5880
5832 5834 5836 5839 5840 5842 5843 5842 5842 5839 5838 5837 5835 5834 5833 5832 5831 5830 5829 5828 5828 5827 5826 5824 5824 5825 5827 5830 5832 5835 5838 5842 5845 5848 5850 5853 5856 5859 5861 5864 5867 5869 5871 5872 5874 5875 5876 5876 5877
5827 5829 5831 5834 5836 5838 5839 5842 5837 5836 5835 5834 5833 5832 5831 5830 5829 5828 5827 5827 5826 5825 5824 5824 5824 5825 5827 5829 5831 5834 5837 5840 5842 5845 5848 5850 5853 5856 5859 5861 5864 5866 5867 5869 5870 5871 5871 5872 5872
5822 5824 5827 5829 5830 5831 5833 5838 5833 5832 5831 5831 5830 5830 5829 5828 5827 5826 5826 5826 5825 5824 5824 5824 5824 5825 5826 5828 5829 5832 5835 5838 5840 5843 5845 5848 5850 5853 5855 5858 5860 5862 5863 5864 5865 5866 5867 5867 5867